Time,TemperatureF,DewpointF,PressureIn,WindDirection,WindDirectionDegrees,WindSpeedMPH,WindSpeedGustMPH,Humidity,HourlyPrecipIn,Conditions,Clouds,dailyrainin,SoftwareType,DateUTC
2013-07-06 00:00:00,72.6,70.8,29.98,ESE,122,1.0,2.0,94,0.00,,,0.00,Wunderground v.1.15,2013-07-06 05:00:00,
2013-07-06 00:05:00,72.7,70.9,29.98,East,97,2.0,2.0,94,0.00,,,0.00,Wunderground v.1.15,2013-07-06 05:05:00,
2013-07-06 00:15:00,72.7,70.9,29.97,ESE,109,2.0,2.0,94,0.00,,,0.00,Wunderground v.1.15,2013-07-06 05:15:00,
2013-07-06 00:20:00,72.6,70.5,29.97,ESE,113,2.0,3.0,93,0.00,,,0.00,Wunderground v.1.15,2013-07-06 05:20:00,
2013-07-06 00:25:00,72.6,70.5,29.97,ESE,120,3.0,3.0,93,0.00,,,0.00,Wunderground v.1.15,2013-07-06 05:25:00,
2013-07-06 00:30:00,72.5,70.4,29.97,SE,140,2.0,2.0,93,0.00,,,0.00,Wunderground v.1.15,2013-07-06 05:30:00,
2013-07-06 00:35:00,72.4,70.3,29.98,SE,129,2.0,3.0,93,0.00,,,0.00,Wunderground v.1.15,2013-07-06 05:35:00,
2013-07-06 00:45:00,72.2,70.4,29.98,ESE,106,2.0,2.0,94,0.00,,,0.00,Wunderground v.1.15,2013-07-06 05:45:00,
2013-07-06 00:50:00,72.2,70.4,29.98,East,99,2.0,2.0,94,0.00,,,0.00,Wunderground v.1.15,2013-07-06 05:50:00,
2013-07-06 00:55:00,72.1,70.3,29.98,ESE,103,2.0,2.0,94,0.00,,,0.00,Wunderground v.1.15,2013-07-06 05:55:00,
2013-07-06 01:00:00,72.1,70.3,29.98,ESE,103,2.0,2.0,94,0.00,,,0.00,Wunderground v.1.15,2013-07-06 06:00:00,
2013-07-06 01:05:00,72.0,70.2,29.98,ESE,110,1.0,3.0,94,0.00,,,0.00,Wunderground v.1.15,2013-07-06 06:05:00,
2013-07-06 01:15:00,72.0,70.2,29.98,East,84,1.0,3.0,94,0.00,,,0.00,Wunderground v.1.15,2013-07-06 06:15:00,
2013-07-06 01:20:00,72.0,70.5,29.98,East,88,1.0,3.0,95,0.00,,,0.00,Wunderground v.1.15,2013-07-06 06:20:00,
2013-07-06 01:25:00,71.9,70.1,29.98,East,86,2.0,3.0,94,0.00,,,0.00,Wunderground v.1.15,2013-07-06 06:25:00,
2013-07-06 01:30:00,71.8,70.3,29.97,East,92,2.0,2.0,95,0.00,,,0.00,Wunderground v.1.15,2013-07-06 06:30:00,
2013-07-06 01:35:00,71.8,70.3,29.97,East,81,1.0,3.0,95,0.00,,,0.00,Wunderground v.1.15,2013-07-06 06:35:00,
2013-07-06 01:40:00,71.8,70.3,29.97,East,96,1.0,1.0,95,0.00,,,0.00,Wunderground v.1.15,2013-07-06 06:40:00,
2013-07-06 01:50:00,71.8,70.3,29.97,East,95,0.0,3.0,95,0.00,,,0.00,Wunderground v.1.15,2013-07-06 06:50:00,
2013-07-06 01:55:00,71.8,70.3,29.97,East,95,0.0,3.0,95,0.00,,,0.00,Wunderground v.1.15,2013-07-06 06:55:00,
2013-07-06 02:00:00,71.7,70.2,29.97,ESE,103,1.0,3.0,95,0.00,,,0.00,Wunderground v.1.15,2013-07-06 07:00:00,
2013-07-06 02:05:00,71.6,70.1,29.97,ESE,115,1.0,3.0,95,0.00,,,0.00,Wunderground v.1.15,2013-07-06 07:05:00,
2013-07-06 02:10:00,71.4,69.9,29.96,East,101,1.0,3.0,95,0.00,,,0.00,Wunderground v.1.15,2013-07-06 07:10:00,
2013-07-06 02:20:00,71.2,70.0,29.96,East,86,1.0,1.0,96,0.00,,,0.00,Wunderground v.1.15,2013-07-06 07:20:00,
2013-07-06 02:25:00,71.2,70.0,29.96,East,86,0.0,3.0,96,0.00,,,0.00,Wunderground v.1.15,2013-07-06 07:25:00,
2013-07-06 02:30:00,71.2,70.0,29.96,NE,38,1.0,3.0,96,0.00,,,0.00,Wunderground v.1.15,2013-07-06 07:30:00,
2013-07-06 02:35:00,71.2,70.0,29.96,NE,47,1.0,3.0,96,0.00,,,0.00,Wunderground v.1.15,2013-07-06 07:35:00,
2013-07-06 02:40:00,71.2,70.0,29.95,NE,49,1.0,3.0,96,0.00,,,0.00,Wunderground v.1.15,2013-07-06 07:40:00,
2013-07-06 02:45:00,71.3,70.1,29.95,ENE,59,1.0,3.0,96,0.00,,,0.00,Wunderground v.1.15,2013-07-06 07:45:00,
2013-07-06 02:55:00,71.1,69.9,29.95,ESE,119,1.0,3.0,96,0.00,,,0.00,Wunderground v.1.15,2013-07-06 07:55:00,
2013-07-06 03:00:00,71.0,69.8,29.95,ESE,107,1.0,1.0,96,0.00,,,0.00,Wunderground v.1.15,2013-07-06 08:00:00,
2013-07-06 03:05:00,70.9,69.7,29.95,ESE,107,1.0,3.0,96,0.00,,,0.00,Wunderground v.1.15,2013-07-06 08:05:00,
2013-07-06 03:10:00,70.7,69.5,29.95,ESE,103,0.0,3.0,96,0.00,,,0.00,Wunderground v.1.15,2013-07-06 08:10:00,
2013-07-06 03:15:00,70.7,69.5,29.95,ESE,106,0.0,3.0,96,0.00,,,0.00,Wunderground v.1.15,2013-07-06 08:15:00,
2013-07-06 03:20:00,70.7,69.5,29.95,ESE,105,0.0,3.0,96,0.00,,,0.00,Wunderground v.1.15,2013-07-06 08:20:00,
2013-07-06 03:25:00,70.7,69.5,29.96,ESE,105,0.0,3.0,96,0.00,,,0.00,Wunderground v.1.15,2013-07-06 08:25:00,
2013-07-06 03:35:00,70.8,69.9,29.95,ESE,105,0.0,3.0,97,0.00,,,0.00,Wunderground v.1.15,2013-07-06 08:35:00,
2013-07-06 03:40:00,70.8,69.9,29.96,ESE,105,0.0,3.0,97,0.00,,,0.00,Wunderground v.1.15,2013-07-06 08:40:00,
2013-07-06 03:45:00,70.7,69.8,29.96,ENE,74,0.0,3.0,97,0.00,,,0.00,Wunderground v.1.15,2013-07-06 08:45:00,
2013-07-06 03:50:00,70.7,69.8,29.96,ENE,74,0.0,3.0,97,0.00,,,0.00,Wunderground v.1.15,2013-07-06 08:50:00,
2013-07-06 03:55:00,70.6,69.7,29.95,NE,37,1.0,3.0,97,0.00,,,0.00,Wunderground v.1.15,2013-07-06 08:55:00,
2013-07-06 04:00:00,70.7,69.8,29.95,ENE,70,2.0,2.0,97,0.00,,,0.00,Wunderground v.1.15,2013-07-06 09:00:00,
2013-07-06 04:05:00,70.6,69.7,29.95,NE,46,1.0,3.0,97,0.00,,,0.00,Wunderground v.1.15,2013-07-06 09:05:00,
2013-07-06 04:10:00,70.6,69.7,29.95,ENE,65,1.0,1.0,97,0.00,,,0.00,Wunderground v.1.15,2013-07-06 09:10:00,
2013-07-06 04:15:00,70.6,69.7,29.95,ENE,68,1.0,2.0,97,0.00,,,0.00,Wunderground v.1.15,2013-07-06 09:15:00,
2013-07-06 04:20:00,70.6,69.7,29.95,ENE,58,1.0,1.0,97,0.00,,,0.00,Wunderground v.1.15,2013-07-06 09:20:00,
2013-07-06 04:30:00,70.4,69.5,29.95,North,5,0.0,3.0,97,0.00,,,0.00,Wunderground v.1.15,2013-07-06 09:30:00,
2013-07-06 04:35:00,70.4,69.5,29.96,East,82,0.0,3.0,97,0.00,,,0.00,Wunderground v.1.15,2013-07-06 09:35:00,
2013-07-06 04:40:00,70.3,69.4,29.96,East,88,1.0,1.0,97,0.00,,,0.00,Wunderground v.1.15,2013-07-06 09:40:00,
2013-07-06 04:45:00,70.1,69.2,29.96,ESE,105,1.0,3.0,97,0.00,,,0.00,Wunderground v.1.15,2013-07-06 09:45:00,
2013-07-06 04:50:00,70.0,69.1,29.96,ESE,105,0.0,3.0,97,0.00,,,0.00,Wunderground v.1.15,2013-07-06 09:50:00,
2013-07-06 05:00:00,69.8,68.9,29.96,ESE,120,0.0,3.0,97,0.00,,,0.00,Wunderground v.1.15,2013-07-06 10:00:00,
2013-07-06 05:05:00,69.7,68.8,29.96,ESE,120,0.0,3.0,97,0.00,,,0.00,Wunderground v.1.15,2013-07-06 10:05:00,
2013-07-06 05:10:00,69.7,68.8,29.96,ESE,120,0.0,3.0,97,0.00,,,0.00,Wunderground v.1.15,2013-07-06 10:10:00,
2013-07-06 05:15:00,69.7,68.8,29.96,East,94,0.0,3.0,97,0.00,,,0.00,Wunderground v.1.15,2013-07-06 10:15:00,
2013-07-06 05:20:00,69.8,69.2,29.96,East,94,0.0,3.0,98,0.00,,,0.00,Wunderground v.1.15,2013-07-06 10:20:00,
2013-07-06 05:25:00,69.9,69.3,29.95,NNE,18,1.0,3.0,98,0.00,,,0.00,Wunderground v.1.15,2013-07-06 10:25:00,
2013-07-06 05:30:00,69.9,69.3,29.95,NNE,23,1.0,3.0,98,0.00,,,0.00,Wunderground v.1.15,2013-07-06 10:30:00,
2013-07-06 05:35:00,70.0,69.4,29.95,NE,38,1.0,3.0,98,0.00,,,0.00,Wunderground v.1.15,2013-07-06 10:35:00,
2013-07-06 05:40:00,70.0,69.4,29.95,NE,38,1.0,3.0,98,0.00,,,0.00,Wunderground v.1.15,2013-07-06 10:40:00,
2013-07-06 05:45:00,70.1,69.5,29.95,NE,46,1.0,3.0,98,0.00,,,0.00,Wunderground v.1.15,2013-07-06 10:45:00,
2013-07-06 05:50:00,70.0,69.4,29.95,NE,46,0.0,3.0,98,0.00,,,0.00,Wunderground v.1.15,2013-07-06 10:50:00,
2013-07-06 05:55:00,70.0,69.4,29.95,ENE,60,0.0,3.0,98,0.00,,,0.00,Wunderground v.1.15,2013-07-06 10:55:00,
2013-07-06 06:05:00,69.9,69.3,29.95,SE,124,1.0,3.0,98,0.00,,,0.00,Wunderground v.1.15,2013-07-06 11:05:00,
2013-07-06 06:10:00,69.8,69.2,29.95,ESE,106,1.0,1.0,98,0.00,,,0.00,Wunderground v.1.15,2013-07-06 11:10:00,
2013-07-06 06:15:00,69.8,69.2,29.95,ESE,102,1.0,3.0,98,0.00,,,0.00,Wunderground v.1.15,2013-07-06 11:15:00,
2013-07-06 06:20:00,69.8,69.2,29.95,East,95,1.0,3.0,98,0.00,,,0.00,Wunderground v.1.15,2013-07-06 11:20:00,
2013-07-06 06:25:00,69.9,69.3,29.96,East,95,1.0,3.0,98,0.00,,,0.00,Wunderground v.1.15,2013-07-06 11:25:00,
2013-07-06 06:30:00,70.1,69.5,29.96,NNW,340,1.0,3.0,98,0.00,,,0.00,Wunderground v.1.15,2013-07-06 11:30:00,
2013-07-06 06:40:00,70.2,69.6,29.96,ENE,75,1.0,1.0,98,0.00,,,0.00,Wunderground v.1.15,2013-07-06 11:40:00,
2013-07-06 06:45:00,70.3,69.7,29.96,NNE,25,1.0,3.0,98,0.00,,,0.00,Wunderground v.1.15,2013-07-06 11:45:00,
2013-07-06 06:50:00,70.4,69.8,29.97,NE,48,1.0,1.0,98,0.00,,,0.00,Wunderground v.1.15,2013-07-06 11:50:00,
2013-07-06 06:55:00,70.5,69.9,29.97,ENE,72,1.0,3.0,98,0.00,,,0.00,Wunderground v.1.15,2013-07-06 11:55:00,
2013-07-06 07:00:00,70.7,70.1,29.97,ENE,76,1.0,3.0,98,0.00,,,0.00,Wunderground v.1.15,2013-07-06 12:00:00,
2013-07-06 07:10:00,71.0,70.4,29.97,East,94,2.0,2.0,98,0.00,,,0.00,Wunderground v.1.15,2013-07-06 12:10:00,
2013-07-06 07:15:00,71.1,70.5,29.97,NNE,23,2.0,3.0,98,0.00,,,0.00,Wunderground v.1.15,2013-07-06 12:15:00,
2013-07-06 07:20:00,71.1,70.5,29.97,East,82,2.0,4.0,98,0.00,,,0.00,Wunderground v.1.15,2013-07-06 12:20:00,
2013-07-06 07:25:00,71.2,70.6,29.97,East,83,3.0,4.0,98,0.00,,,0.00,Wunderground v.1.15,2013-07-06 12:25:00,
2013-07-06 07:30:00,71.4,71.1,29.97,NE,55,2.0,2.0,99,0.00,,,0.00,Wunderground v.1.15,2013-07-06 12:30:00,
2013-07-06 07:35:00,71.4,70.8,29.97,East,91,2.0,3.0,98,0.00,,,0.00,Wunderground v.1.15,2013-07-06 12:35:00,
2013-07-06 07:45:00,71.7,71.4,29.97,East,100,2.0,3.0,99,0.00,,,0.00,Wunderground v.1.15,2013-07-06 12:45:00,
2013-07-06 07:50:00,71.9,71.3,29.97,SE,124,2.0,5.0,98,0.00,,,0.00,Wunderground v.1.15,2013-07-06 12:50:00,
2013-07-06 07:55:00,71.9,71.6,29.97,East,100,2.0,5.0,99,0.00,,,0.00,Wunderground v.1.15,2013-07-06 12:55:00,
2013-07-06 08:00:00,72.0,71.7,29.97,ESE,118,3.0,3.0,99,0.00,,,0.00,Wunderground v.1.15,2013-07-06 13:00:00,
2013-07-06 08:05:00,72.1,71.5,29.97,East,92,3.0,3.0,98,0.00,,,0.00,Wunderground v.1.15,2013-07-06 13:05:00,
2013-07-06 08:15:00,72.4,71.8,29.98,ESE,116,2.0,3.0,98,0.00,,,0.00,Wunderground v.1.15,2013-07-06 13:15:00,
2013-07-06 08:20:00,72.6,72.3,29.98,ENE,77,3.0,4.0,99,0.00,,,0.00,Wunderground v.1.15,2013-07-06 13:20:00,
2013-07-06 08:25:00,72.6,72.0,29.98,East,86,3.0,4.0,98,0.00,,,0.00,Wunderground v.1.15,2013-07-06 13:25:00,
2013-07-06 08:30:00,72.7,72.1,29.99,ESE,106,4.0,4.0,98,0.00,,,0.00,Wunderground v.1.15,2013-07-06 13:30:00,
2013-07-06 08:35:00,72.9,72.3,29.98,ENE,69,3.0,4.0,98,0.00,,,0.00,Wunderground v.1.15,2013-07-06 13:35:00,
2013-07-06 08:40:00,73.1,72.5,29.99,East,84,3.0,3.0,98,0.00,,,0.00,Wunderground v.1.15,2013-07-06 13:40:00,
2013-07-06 08:50:00,73.7,72.8,29.98,East,99,3.0,4.0,97,0.00,,,0.00,Wunderground v.1.15,2013-07-06 13:50:00,
2013-07-06 08:55:00,74.1,73.2,29.99,East,90,3.0,4.0,97,0.00,,,0.00,Wunderground v.1.15,2013-07-06 13:55:00,
2013-07-06 09:00:00,74.4,73.2,29.99,East,83,3.0,3.0,96,0.00,,,0.00,Wunderground v.1.15,2013-07-06 14:00:00,
2013-07-06 09:05:00,74.7,73.2,29.99,East,97,3.0,3.0,95,0.00,,,0.00,Wunderground v.1.15,2013-07-06 14:05:00,
2013-07-06 09:10:00,75.2,73.7,29.99,East,101,3.0,3.0,95,0.00,,,0.00,Wunderground v.1.15,2013-07-06 14:10:00,
2013-07-06 09:20:00,75.4,73.6,29.99,East,94,4.0,4.0,94,0.00,,,0.00,Wunderground v.1.15,2013-07-06 14:20:00,
2013-07-06 09:25:00,75.8,73.9,29.98,ESE,120,3.0,4.0,94,0.00,,,0.00,Wunderground v.1.15,2013-07-06 14:25:00,
2013-07-06 09:30:00,76.2,74.0,29.98,East,95,3.0,4.0,93,0.00,,,0.00,Wunderground v.1.15,2013-07-06 14:30:00,
2013-07-06 09:35:00,76.7,73.9,29.98,ESE,105,4.0,5.0,91,0.00,,,0.00,Wunderground v.1.15,2013-07-06 14:35:00,
2013-07-06 09:40:00,76.7,73.9,29.99,ESE,123,4.0,4.0,91,0.00,,,0.00,Wunderground v.1.15,2013-07-06 14:40:00,
2013-07-06 09:45:00,77.1,74.3,29.98,East,101,4.0,4.0,91,0.00,,,0.00,Wunderground v.1.15,2013-07-06 14:45:00,
2013-07-06 09:50:00,77.4,74.2,29.99,East,79,4.0,4.0,90,0.00,,,0.00,Wunderground v.1.15,2013-07-06 14:50:00,
2013-07-06 09:55:00,77.9,74.4,29.99,ESE,118,4.0,5.0,89,0.00,,,0.00,Wunderground v.1.15,2013-07-06 14:55:00,
2013-07-06 10:00:00,78.9,75.0,29.99,ESE,114,4.0,4.0,88,0.00,,,0.00,Wunderground v.1.15,2013-07-06 15:00:00,
2013-07-06 10:05:00,79.3,75.1,29.99,SE,146,4.0,4.0,87,0.00,,,0.00,Wunderground v.1.15,2013-07-06 15:05:00,
2013-07-06 10:10:00,79.7,75.5,29.99,SE,133,4.0,4.0,87,0.00,,,0.00,Wunderground v.1.15,2013-07-06 15:10:00,
2013-07-06 10:20:00,79.5,74.9,29.99,ESE,112,4.0,4.0,86,0.00,,,0.00,Wunderground v.1.15,2013-07-06 15:20:00,
2013-07-06 10:25:00,79.1,74.9,29.99,NE,53,4.0,4.0,87,0.00,,,0.00,Wunderground v.1.15,2013-07-06 15:25:00,
2013-07-06 10:30:00,79.4,75.5,29.99,ESE,103,4.0,4.0,88,0.00,,,0.00,Wunderground v.1.15,2013-07-06 15:30:00,
2013-07-06 10:40:00,79.9,75.3,29.98,SE,131,4.0,4.0,86,0.00,,,0.00,Wunderground v.1.15,2013-07-06 15:40:00,
2013-07-06 10:45:00,79.9,75.0,29.98,ENE,68,5.0,5.0,85,0.00,,,0.00,Wunderground v.1.15,2013-07-06 15:45:00,
2013-07-06 10:50:00,79.7,75.1,29.98,ESE,121,4.0,7.0,86,0.00,,,0.00,Wunderground v.1.15,2013-07-06 15:50:00,
2013-07-06 10:55:00,79.6,75.0,29.98,ENE,60,5.0,7.0,86,0.00,,,0.00,Wunderground v.1.15,2013-07-06 15:55:00,
2013-07-06 11:00:00,80.0,75.8,29.98,ENE,75,4.0,4.0,87,0.00,,,0.00,Wunderground v.1.15,2013-07-06 16:00:00,
2013-07-06 11:10:00,80.5,75.6,29.98,ENE,75,3.0,3.0,85,0.00,,,0.00,Wunderground v.1.15,2013-07-06 16:10:00,
2013-07-06 11:20:00,80.5,75.2,29.98,East,87,3.0,4.0,84,0.00,,,0.00,Wunderground v.1.15,2013-07-06 16:20:00,
2013-07-06 11:35:00,81.4,75.7,29.98,East,84,4.0,4.0,83,0.00,,,0.00,Wunderground v.1.15,2013-07-06 16:35:00,
2013-07-06 11:45:00,83.2,76.8,29.98,ESE,104,4.0,6.0,81,0.00,,,0.00,Wunderground v.1.15,2013-07-06 16:45:00,
2013-07-06 12:00:00,83.6,75.2,29.98,East,92,5.0,5.0,76,0.00,,,0.00,Wunderground v.1.15,2013-07-06 17:00:00,
2013-07-06 12:05:00,83.9,75.1,29.98,East,101,4.0,6.0,75,0.00,,,0.00,Wunderground v.1.15,2013-07-06 17:05:00,
2013-07-06 12:10:00,83.6,75.6,29.98,SSW,195,4.0,4.0,77,0.00,,,0.00,Wunderground v.1.15,2013-07-06 17:10:00,
2013-07-06 12:25:00,83.9,75.5,29.98,East,82,3.0,4.0,76,0.00,,,0.00,Wunderground v.1.15,2013-07-06 17:25:00,
2013-07-06 12:30:00,84.0,74.4,29.97,East,100,3.0,4.0,73,0.00,,,0.00,Wunderground v.1.15,2013-07-06 17:30:00,
2013-07-06 12:45:00,84.8,75.2,29.97,ENE,62,4.0,6.0,73,0.00,,,0.00,Wunderground v.1.15,2013-07-06 17:45:00,
2013-07-06 12:50:00,85.3,74.4,29.97,ESE,105,4.0,4.0,70,0.00,,,0.00,Wunderground v.1.15,2013-07-06 17:50:00,
2013-07-06 12:55:00,85.9,75.0,29.96,East,97,4.0,4.0,70,0.00,,,0.00,Wunderground v.1.15,2013-07-06 17:55:00,
2013-07-06 13:05:00,86.3,75.8,29.96,East,91,4.0,5.0,71,0.00,,,0.00,Wunderground v.1.15,2013-07-06 18:05:00,
2013-07-06 13:15:00,86.7,74.9,29.96,NE,53,4.0,4.0,68,0.00,,,0.00,Wunderground v.1.15,2013-07-06 18:15:00,
2013-07-06 13:20:00,86.5,74.7,29.96,ENE,70,4.0,4.0,68,0.00,,,0.00,Wunderground v.1.15,2013-07-06 18:20:00,
2013-07-06 13:25:00,86.5,75.1,29.96,ENE,66,4.0,4.0,69,0.00,,,0.00,Wunderground v.1.15,2013-07-06 18:25:00,
2013-07-06 13:30:00,86.5,74.7,29.96,ENE,77,4.0,4.0,68,0.00,,,0.00,Wunderground v.1.15,2013-07-06 18:30:00,
2013-07-06 13:40:00,86.7,74.9,29.96,ESE,102,5.0,5.0,68,0.00,,,0.00,Wunderground v.1.15,2013-07-06 18:40:00,
2013-07-06 13:45:00,87.0,75.2,29.96,East,95,4.0,8.0,68,0.00,,,0.00,Wunderground v.1.15,2013-07-06 18:45:00,
2013-07-06 13:55:00,87.0,75.2,29.95,ENE,70,4.0,5.0,68,0.00,,,0.00,Wunderground v.1.15,2013-07-06 18:55:00,
2013-07-06 14:00:00,87.2,75.8,29.95,ENE,64,5.0,8.0,69,0.00,,,0.00,Wunderground v.1.15,2013-07-06 19:00:00,
2013-07-06 14:05:00,85.3,74.4,29.95,East,81,7.0,10.0,70,0.00,,,0.00,Wunderground v.1.15,2013-07-06 19:05:00,
2013-07-06 14:15:00,83.1,74.7,29.95,East,88,7.0,8.0,76,0.00,,,0.00,Wunderground v.1.15,2013-07-06 19:15:00,
2013-07-06 14:20:00,83.5,74.7,29.94,ESE,122,6.0,6.0,75,0.00,,,0.00,Wunderground v.1.15,2013-07-06 19:20:00,
2013-07-06 14:30:00,84.2,76.2,29.95,East,94,5.0,6.0,77,0.00,,,0.00,Wunderground v.1.15,2013-07-06 19:30:00,
2013-07-06 14:35:00,84.7,76.3,29.95,SE,143,4.0,8.0,76,0.00,,,0.00,Wunderground v.1.15,2013-07-06 19:35:00,
2013-07-06 14:55:00,81.9,74.0,29.95,ESE,113,7.0,13.0,77,0.00,,,0.00,Wunderground v.1.15,2013-07-06 19:55:00,
2013-07-06 15:00:00,81.0,73.9,29.95,SSW,207,7.0,7.0,79,0.00,,,0.00,Wunderground v.1.15,2013-07-06 20:00:00,
2013-07-06 15:15:00,78.6,74.4,29.94,SSE,155,4.0,7.0,87,0.00,,,0.01,Wunderground v.1.15,2013-07-06 20:15:00,
2013-07-06 15:25:00,78.5,73.3,29.94,South,179,2.0,3.0,84,0.00,,,0.01,Wunderground v.1.15,2013-07-06 20:25:00,
2013-07-06 15:30:00,78.6,73.7,29.93,SE,139,3.0,3.0,85,0.00,,,0.01,Wunderground v.1.15,2013-07-06 20:30:00,
2013-07-06 15:45:00,80.1,74.5,29.93,East,87,1.0,3.0,83,0.00,,,0.01,Wunderground v.1.15,2013-07-06 20:45:00,
2013-07-06 15:50:00,80.1,75.2,29.93,ENE,73,1.0,3.0,85,0.00,,,0.01,Wunderground v.1.15,2013-07-06 20:50:00,
2013-07-06 15:55:00,80.6,75.7,29.93,SE,146,1.0,3.0,85,0.00,,,0.01,Wunderground v.1.15,2013-07-06 20:55:00,
2013-07-06 16:00:00,81.6,77.0,29.93,SE,139,1.0,3.0,86,0.00,,,0.01,Wunderground v.1.15,2013-07-06 21:00:00,
2013-07-06 16:05:00,82.1,76.8,29.93,ESE,113,1.0,3.0,84,0.00,,,0.01,Wunderground v.1.15,2013-07-06 21:05:00,
2013-07-06 16:15:00,82.5,77.9,29.93,SE,130,2.0,3.0,86,0.00,,,0.01,Wunderground v.1.15,2013-07-06 21:15:00,
2013-07-06 16:25:00,82.8,77.5,29.93,SE,129,2.0,3.0,84,0.00,,,0.01,Wunderground v.1.15,2013-07-06 21:25:00,
2013-07-06 16:30:00,83.1,77.8,29.93,SE,136,2.0,3.0,84,0.00,,,0.01,Wunderground v.1.15,2013-07-06 21:30:00,
2013-07-06 16:35:00,83.6,77.9,29.93,SE,127,2.0,3.0,83,0.00,,,0.01,Wunderground v.1.15,2013-07-06 21:35:00,
2013-07-06 16:45:00,84.5,77.6,29.93,SE,125,3.0,5.0,80,0.00,,,0.01,Wunderground v.1.15,2013-07-06 21:45:00,
2013-07-06 16:50:00,85.1,77.5,29.93,SE,141,3.0,3.0,78,0.00,,,0.01,Wunderground v.1.15,2013-07-06 21:50:00,
2013-07-06 17:00:00,86.3,77.8,29.93,East,96,4.0,4.0,76,0.00,,,0.01,Wunderground v.1.15,2013-07-06 22:00:00,
2013-07-06 17:05:00,86.8,77.5,29.92,SE,136,4.0,4.0,74,0.00,,,0.01,Wunderground v.1.15,2013-07-06 22:05:00,
2013-07-06 17:15:00,86.5,77.2,29.92,SE,141,4.0,5.0,74,0.00,,,0.01,Wunderground v.1.15,2013-07-06 22:15:00,
2013-07-06 17:20:00,86.0,76.7,29.92,SE,145,4.0,7.0,74,0.00,,,0.01,Wunderground v.1.15,2013-07-06 22:20:00,
2013-07-06 17:30:00,82.3,75.1,29.93,SSE,152,7.0,7.0,79,0.00,,,0.01,Wunderground v.1.15,2013-07-06 22:30:00,
2013-07-06 17:35:00,81.2,74.4,29.94,South,169,6.0,9.0,80,0.00,,,0.01,Wunderground v.1.15,2013-07-06 22:35:00,
2013-07-06 17:45:00,80.3,73.9,29.94,SE,126,5.0,6.0,81,0.00,,,0.01,Wunderground v.1.15,2013-07-06 22:45:00,
2013-07-06 17:50:00,80.2,74.2,29.93,SSE,150,4.0,4.0,82,0.00,,,0.01,Wunderground v.1.15,2013-07-06 22:50:00,
2013-07-06 18:00:00,81.1,74.3,29.93,SE,137,3.0,3.0,80,0.00,,,0.01,Wunderground v.1.15,2013-07-06 23:00:00,
2013-07-06 18:05:00,80.9,74.5,29.93,SSE,152,3.0,3.0,81,0.00,,,0.01,Wunderground v.1.15,2013-07-06 23:05:00,
2013-07-06 18:10:00,81.1,74.7,29.92,SSE,151,3.0,3.0,81,0.00,,,0.01,Wunderground v.1.15,2013-07-06 23:10:00,
2013-07-06 18:20:00,82.0,74.8,29.92,SSW,208,4.0,4.0,79,0.00,,,0.01,Wunderground v.1.15,2013-07-06 23:20:00,
2013-07-06 18:25:00,82.3,75.5,29.92,SE,132,3.0,4.0,80,0.00,,,0.01,Wunderground v.1.15,2013-07-06 23:25:00,
2013-07-06 18:30:00,82.6,75.4,29.92,SE,136,3.0,3.0,79,0.00,,,0.01,Wunderground v.1.15,2013-07-06 23:30:00,
2013-07-06 18:35:00,82.5,75.3,29.92,SE,136,3.0,3.0,79,0.00,,,0.01,Wunderground v.1.15,2013-07-06 23:35:00,
2013-07-06 18:40:00,82.8,74.8,29.93,SSE,150,4.0,4.0,77,0.00,,,0.01,Wunderground v.1.15,2013-07-06 23:40:00,
2013-07-06 18:45:00,83.0,74.3,29.92,SE,136,3.0,4.0,75,0.00,,,0.01,Wunderground v.1.15,2013-07-06 23:45:00,
2013-07-06 18:50:00,82.8,74.5,29.93,SE,142,3.0,3.0,76,0.00,,,0.01,Wunderground v.1.15,2013-07-06 23:50:00,
2013-07-06 19:00:00,82.8,74.8,29.93,SSW,202,3.0,3.0,77,0.00,,,0.01,Wunderground v.1.15,2013-07-07 00:00:00,
2013-07-06 19:10:00,82.9,75.3,29.93,East,90,3.0,4.0,78,0.00,,,0.01,Wunderground v.1.15,2013-07-07 00:10:00,
2013-07-06 19:20:00,82.2,74.7,29.93,SE,141,4.0,4.0,78,0.00,,,0.01,Wunderground v.1.15,2013-07-07 00:20:00,
2013-07-06 19:25:00,82.1,75.3,29.94,South,179,3.0,4.0,80,0.00,,,0.01,Wunderground v.1.15,2013-07-07 00:25:00,
2013-07-06 19:35:00,81.7,74.9,29.93,ESE,104,2.0,3.0,80,0.00,,,0.01,Wunderground v.1.15,2013-07-07 00:35:00,
2013-07-06 19:40:00,81.7,75.3,29.93,SE,133,2.0,2.0,81,0.00,,,0.01,Wunderground v.1.15,2013-07-07 00:40:00,
2013-07-06 19:50:00,81.5,75.5,29.94,SE,124,2.0,3.0,82,0.00,,,0.01,Wunderground v.1.15,2013-07-07 00:50:00,
2013-07-06 20:00:00,80.9,75.2,29.94,SE,146,2.0,3.0,83,0.00,,,0.01,Wunderground v.1.15,2013-07-07 01:00:00,
2013-07-06 20:05:00,80.7,75.1,29.94,SE,127,1.0,3.0,83,0.00,,,0.01,Wunderground v.1.15,2013-07-07 01:05:00,
2013-07-06 20:10:00,80.3,75.0,29.94,ESE,107,2.0,3.0,84,0.00,,,0.01,Wunderground v.1.15,2013-07-07 01:10:00,
2013-07-06 20:15:00,79.9,75.0,29.94,SE,126,2.0,3.0,85,0.00,,,0.01,Wunderground v.1.15,2013-07-07 01:15:00,
2013-07-06 20:30:00,79.2,75.0,29.94,ESE,103,2.0,3.0,87,0.00,,,0.01,Wunderground v.1.15,2013-07-07 01:30:00,
2013-07-06 20:35:00,79.0,74.8,29.95,East,96,2.0,3.0,87,0.00,,,0.01,Wunderground v.1.15,2013-07-07 01:35:00,
2013-07-06 20:40:00,78.8,74.9,29.95,East,93,2.0,3.0,88,0.00,,,0.01,Wunderground v.1.15,2013-07-07 01:40:00,
2013-07-06 20:45:00,78.7,74.8,29.95,SE,131,2.0,3.0,88,0.00,,,0.01,Wunderground v.1.15,2013-07-07 01:45:00,
2013-07-06 20:55:00,78.7,75.2,29.95,SE,140,1.0,3.0,89,0.00,,,0.01,Wunderground v.1.15,2013-07-07 01:55:00,
2013-07-06 21:00:00,78.5,75.3,29.95,ESE,123,1.0,3.0,90,0.00,,,0.01,Wunderground v.1.15,2013-07-07 02:00:00,
2013-07-06 21:05:00,78.2,75.0,29.96,ESE,108,1.0,3.0,90,0.00,,,0.01,Wunderground v.1.15,2013-07-07 02:05:00,
2013-07-06 21:15:00,78.0,75.2,29.96,ESE,105,1.0,3.0,91,0.00,,,0.01,Wunderground v.1.15,2013-07-07 02:15:00,
2013-07-06 21:20:00,77.9,75.1,29.96,East,86,1.0,3.0,91,0.00,,,0.01,Wunderground v.1.15,2013-07-07 02:20:00,
2013-07-06 21:25:00,77.7,74.9,29.96,ESE,112,1.0,3.0,91,0.00,,,0.01,Wunderground v.1.15,2013-07-07 02:25:00,
2013-07-06 21:30:00,77.7,74.9,29.97,ESE,108,1.0,3.0,91,0.00,,,0.01,Wunderground v.1.15,2013-07-07 02:30:00,
2013-07-06 21:40:00,77.4,74.9,29.97,ESE,111,2.0,3.0,92,0.00,,,0.01,Wunderground v.1.15,2013-07-07 02:40:00,
2013-07-06 21:50:00,77.3,74.8,29.97,ESE,102,2.0,4.0,92,0.00,,,0.01,Wunderground v.1.15,2013-07-07 02:50:00,
2013-07-06 21:55:00,77.3,74.8,29.97,ESE,105,3.0,4.0,92,0.00,,,0.01,Wunderground v.1.15,2013-07-07 02:55:00,
2013-07-06 22:00:00,77.2,74.7,29.97,SE,132,3.0,3.0,92,0.00,,,0.01,Wunderground v.1.15,2013-07-07 03:00:00,
2013-07-06 22:10:00,77.0,74.8,29.98,East,101,3.0,4.0,93,0.00,,,0.01,Wunderground v.1.15,2013-07-07 03:10:00,
2013-07-06 22:15:00,77.0,74.8,29.97,East,89,3.0,4.0,93,0.00,,,0.01,Wunderground v.1.15,2013-07-07 03:15:00,
2013-07-06 22:30:00,76.8,74.9,29.97,SE,141,2.0,3.0,94,0.00,,,0.01,Wunderground v.1.15,2013-07-07 03:30:00,
2013-07-06 22:35:00,76.8,74.9,29.97,SE,139,2.0,3.0,94,0.00,,,0.01,Wunderground v.1.15,2013-07-07 03:35:00,
2013-07-06 22:45:00,76.6,74.7,29.97,East,93,2.0,3.0,94,0.00,,,0.01,Wunderground v.1.15,2013-07-07 03:45:00,
2013-07-06 22:50:00,76.5,75.0,29.97,ESE,110,3.0,3.0,95,0.00,,,0.01,Wunderground v.1.15,2013-07-07 03:50:00,
2013-07-06 23:00:00,76.4,74.9,29.97,ESE,117,3.0,3.0,95,0.00,,,0.01,Wunderground v.1.15,2013-07-07 04:00:00,
2013-07-06 23:05:00,76.4,74.9,29.97,East,88,2.0,3.0,95,0.00,,,0.01,Wunderground v.1.15,2013-07-07 04:05:00,
2013-07-06 23:10:00,76.4,74.9,29.97,East,96,2.0,3.0,95,0.00,,,0.01,Wunderground v.1.15,2013-07-07 04:10:00,
2013-07-06 23:15:00,76.2,74.7,29.97,ESE,122,2.0,3.0,95,0.00,,,0.01,Wunderground v.1.15,2013-07-07 04:15:00,
2013-07-06 23:20:00,76.2,74.7,29.97,ESE,116,2.0,3.0,95,0.00,,,0.01,Wunderground v.1.15,2013-07-07 04:20:00,
2013-07-06 23:25:00,76.2,74.7,29.97,ESE,115,2.0,3.0,95,0.00,,,0.01,Wunderground v.1.15,2013-07-07 04:25:00,
2013-07-06 23:30:00,76.2,74.7,29.97,East,86,1.0,3.0,95,0.00,,,0.01,Wunderground v.1.15,2013-07-07 04:30:00,
2013-07-06 23:35:00,76.1,74.9,29.97,East,98,2.0,3.0,96,0.00,,,0.01,Wunderground v.1.15,2013-07-07 04:35:00,
2013-07-06 23:40:00,76.1,74.9,29.97,SE,140,2.0,3.0,96,0.00,,,0.01,Wunderground v.1.15,2013-07-07 04:40:00,
2013-07-06 23:50:00,76.0,74.8,29.97,East,91,3.0,3.0,96,0.00,,,0.01,Wunderground v.1.15,2013-07-07 04:50:00,
2013-07-06 23:55:00,76.0,74.8,29.97,ESE,120,3.0,3.0,96,0.00,,,0.01,Wunderground v.1.15,2013-07-07 04:55:00,